This demonstration page uses our WeatherBlox Daily Observations layout. Learn more.

Left ArrowRight Arrow

39.08367, -84.50855

Hourly Observations for May 1, 2015

Temp ( °F °C ) Dew Point ( °F °C ) Humidity (%) Winds ( mph kmh ) Pressure ( in mb ) Visibility ( mi km ) Precip ( " mm )
12:53 am 00:53 Mostly Cloudy 49 9.4 41 5 74 74 N 7 11 30.01 1016 10 16 N/A
1:53 am 01:53 Cloudy 50 10 41 5 71 71 NW 6 9 30.00 1016 10 16 N/A
2:53 am 02:53 Cloudy 50 10 41 5 71 71 NW 6 9 30.00 1016 10 16 N/A
3:53 am 03:53 Cloudy 50 10 42 5.6 74 74 NNW 8 13 30.00 1016 10 16 N/A
4:53 am 04:53 Mostly Cloudy 49 9.4 41 5 74 74 NNW 8 13 30.01 1016 10 16 N/A
5:53 am 05:53 Clear 48 8.9 40 4.4 74 74 VRB 5 7 30.01 1016 10 16 N/A
6:53 am 06:53 Partly Cloudy 46 7.8 40 4.4 79 79 N N/A 30.03 1017 10 16 N/A
7:53 am 07:53 Sunny 50 10 40 4.4 68 68 N N/A 30.05 1018 10 16 N/A
8:53 am 08:53 Sunny 53 11.7 42 5.6 66 66 N 9 15 30.07 1018 10 16 N/A
9:53 am 09:53 Sunny 57 13.9 44 6.7 62 62 N 8 13 30.08 1019 10 16 N/A
10:53 am 10:53 Sunny 61 16.1 46 7.8 58 58 N 8 13 30.08 1019 10 16 N/A
11:53 am 11:53 Sunny 64 17.8 47 8.3 54 54 VRB 6 9 30.09 1019 10 16 N/A
12:53 pm 12:53 Sunny 66 18.9 45 7.2 47 47 VRB 3 6 30.08 1019 10 16 N/A
1:53 pm 13:53 Sunny 69 20.6 46 7.8 44 44 N 12 19 30.06 1018 10 16 N/A
2:53 pm 14:53 Mostly Sunny 70 21.1 44 6.7 39 39 N 13 20 30.05 1018 10 16 N/A
3:53 pm 15:53 Partly Cloudy 68 20 43 6.1 40 40 N 8 13 30.04 1017 10 16 N/A
4:53 pm 16:53 Mostly Cloudy 70 21.1 44 6.7 39 39 N 7 11 30.02 1017 10 16 N/A
5:53 pm 17:53 Sunny 72 22.2 45 7.2 38 38 NNW 5 7 30.02 1017 10 16 N/A
6:53 pm 18:53 Partly Cloudy 70 21.1 42 5.6 37 37 NE 9 15 30.03 1017 10 16 N/A
7:53 pm 19:53 Partly Cloudy 55 13 41 5 59 59 N 7 11 29.94 1014 10 16 N/A
8:53 pm 20:53 Clear 62 16.7 44 6.7 52 52 N N/A 30.05 1018 10 16 N/A
9:53 pm 21:53 Clear 56 13.3 45 7.2 67 67 N N/A 30.06 1018 10 16 N/A
10:53 pm 22:53 Clear 50 10 45 7.2 83 83 N N/A 30.08 1019 10 16 N/A
11:53 pm 23:53 Clear 50 10 46 7.8 86 86 N N/A 30.08 1019 10 16 N/A

Powered by AerisWeather